Location: Torch Lake Township
(45.0753°N, 85.3586°W)
Time: 14:09:02
(UTC-05:00)

Amateur Radio Satellites - All Passes

Search period start: 26 February 2017 13:39
Search period end: 27 February 2017 13:39
Location: Torch Lake Township, 45.0753°N, 85.3586°W

Satellite Date Start Highest point End Downlink Frequencies (MHz)
Time Altitude Azimuth
AO-7 26 Feb 13:47:45 13:54:54 33° 55° (NE) 14:02:03 .
Gurwin Techsat 1B 26 Feb 13:50:16 13:55:35 81° 256° (WSW) 14:00:56 435.225
YUBILEINY 26 Feb 13:54:40 13:58:10 13° 310° (NW) 14:01:42 435.215
Tancredo 1 26 Feb 13:55:06 13:58:20 89° 251° (WSW) 14:01:34 437.200
BEESAT 3 26 Feb 13:58:08 14:01:20 22° 41° (NE) 14:04:32 437.485
Oscar 19 26 Feb 14:37:28 14:40:59 18° 269° (W) 14:44:30 437.125/150
50 SAT 26 Feb 14:38:49 14:39:29 10° 298° (WNW) 14:40:09 437.505
BEESAT 2 26 Feb 14:38:58 14:42:20 24° 42° (NE) 14:45:40 435.950
DX 1 26 Feb 14:45:20 14:48:39 22° 296° (WNW) 14:51:59 434.975-435.025
UKube-1 26 Feb 14:54:52 14:58:17 23° 295° (WNW) 15:01:41 .
ISS 26 Feb 15:09:07 15:11:45 22° 223° (SW) 15:14:21 437.550
ITAMSAT 1 26 Feb 15:11:33 15:16:45 76° 257° (WSW) 15:22:01 435.822/435.867
RS-15 26 Feb 15:24:13 15:28:09 12° 91° (E) 15:32:07 29.354- 29.394
ITUPSAT 1 26 Feb 15:25:38 15:30:23 56° 101° (ESE) 15:35:05 437.325
PCSat 26 Feb 15:26:54 15:30:37 19° 106° (ESE) 15:34:21 145.827
BEESAT 26 Feb 15:31:21 15:36:08 65° 102° (ESE) 15:40:52 436.000
Tancredo 1 26 Feb 15:32:34 15:34:10 13° 227° (SW) 15:35:46 437.200
Gurwin Techsat 1B 26 Feb 15:35:12 15:36:22 11° 274° (W) 15:37:31 435.225
BEESAT 3 26 Feb 15:35:18 15:39:11 48° 240° (WSW) 15:43:02 437.485
AO-7 26 Feb 15:38:49 15:47:08 67° 255° (WSW) 15:55:29 .
MOZHAYETS 4 26 Feb 15:41:21 15:45:29 32° 96° (E) 15:49:35
KKS-1 26 Feb 16:04:12 16:06:36 14° 90° (E) 16:08:59 437.445
BEESAT 2 26 Feb 16:16:25 16:20:16 43° 241° (WSW) 16:24:06 435.950
NO-84 26 Feb 16:24:49 16:26:50 16° 126° (SE) 16:28:57 435.350 FM
CUTE-I 26 Feb 16:31:33 16:34:31 15° 57° (ENE) 16:37:31 437.470
STARS 26 Feb 16:34:47 16:36:56 13° 90° (E) 16:39:05 437.465
XW-2C 26 Feb 16:43:47 16:45:19 12° 62° (ENE) 16:46:51 145.795 - 145.815
CUBESAT XI-V 26 Feb 16:44:25 16:48:09 24° 93° (E) 16:51:52 437.345
NUDT-PHONESAT 26 Feb 16:51:07 16:52:26 12° 62° (ENE) 16:53:45 437.300
HO-68 26 Feb 16:58:12 17:00:29 12° 44° (NE) 17:02:45 435.675
LilacSat-2 26 Feb 17:00:39 17:03:26 19° 66° (ENE) 17:06:12 437.200
ITUPSAT 1 26 Feb 17:04:25 17:07:48 19° 299° (WNW) 17:11:09 437.325
PCSat 26 Feb 17:08:03 17:13:27 69° 304° (NW) 17:18:53 145.827
BEESAT 26 Feb 17:10:22 17:13:24 17° 300° (WNW) 17:16:26 436.000
MOZHAYETS 4 26 Feb 17:18:36 17:22:34 29° 293° (WNW) 17:26:30
RS-15 26 Feb 17:26:07 17:37:37 58° 113° (ESE) 17:49:31 29.354- 29.394
AO-7 26 Feb 17:37:52 17:41:26 13° 275° (W) 17:45:02 .
KKS-1 26 Feb 17:39:08 17:43:34 63° 288° (WNW) 17:47:59 437.445
KAITUO 1B 26 Feb 17:48:55 17:52:37 50° 73° (ENE) 17:56:20 145.475/437.950
DOVE 4 26 Feb 17:55:16 17:59:23 80° 77° (ENE) 18:03:38 437.250
XW-2F 26 Feb 17:55:51 17:59:41 73° 75° (ENE) 18:03:32 145.980 - 146.000
CUTE 1.7 + AOD 2 26 Feb 17:58:10 17:59:26 11° 60° (ENE) 18:00:42 437.475
NO-84 26 Feb 18:00:47 18:04:02 62° 327° (NNW) 18:07:37 435.350 FM
XW-2D 26 Feb 18:01:20 18:05:12 90° 58° (ENE) 18:09:04 145.860 - 145.880
XW-2B 26 Feb 18:06:25 18:10:17 82° 258° (WSW) 18:14:10 145.730 - 145.750
CUTE-I 26 Feb 18:08:28 18:13:49 88° 256° (WSW) 18:19:14 437.470
M-CUBED/EXP-1 PRIME 26 Feb 18:08:41 18:12:24 50° 106° (ESE) 18:16:23 437.505
STARS 26 Feb 18:09:19 18:13:43 66° 287° (WNW) 18:18:07 437.465
XW-2C 26 Feb 18:15:11 18:19:00 63° 260° (W) 18:22:52 145.795 - 145.815
CUBESAT XI-V 26 Feb 18:21:23 18:25:38 38° 291° (WNW) 18:29:51 437.345
NUDT-PHONESAT 26 Feb 18:22:06 18:25:51 64° 260° (W) 18:29:37 437.300
CUBEBUG 2 26 Feb 18:30:14 18:32:11 13° 58° (ENE) 18:34:08 437.445
LilacSat-2 26 Feb 18:33:51 18:37:28 36° 263° (W) 18:41:06 437.200
HO-68 26 Feb 18:39:44 18:46:35 51° 65° (ENE) 18:53:26 435.675
SEEDS 26 Feb 18:50:14 18:53:41 25° 67° (ENE) 18:57:08 437.485
PCSat 26 Feb 18:54:32 18:57:53 16° 326° (NW) 19:01:16 145.827
UWE-3 26 Feb 19:03:28 19:06:24 17° 62° (ENE) 19:09:23 435.000/436.395/437.385
XW-2A 26 Feb 19:12:40 19:16:04 82° 258° (WSW) 19:19:31 145.665 - 145.685
STRAND 1 26 Feb 19:20:18 19:24:37 26° 94° (E) 19:28:55 437.568
ZACube-1 26 Feb 19:21:28 19:24:11 16° 61° (ENE) 19:26:58 437.345
KAITUO 1B 26 Feb 19:25:08 19:26:56 13° 270° (W) 19:28:46 145.475/437.950
CUTE 1.7 + AOD 2 26 Feb 19:30:20 19:34:36 85° 255° (WSW) 19:38:54 437.475
RS-15 26 Feb 19:38:34 19:50:22 55° 319° (NW) 20:02:31 29.354- 29.394
NO-84 26 Feb 19:39:34 19:42:19 21° 348° (NNW) 19:45:15 435.350 FM
M-CUBED/EXP-1 PRIME 26 Feb 19:44:13 19:46:36 16° 301° (WNW) 19:49:04 437.505
CUTE-I 26 Feb 19:52:34 19:54:38 12° 273° (W) 19:56:41 437.470
YUBILEINY 26 Feb 20:02:19 20:08:16 20° 58° (ENE) 20:14:10 435.215
CUBEBUG 2 26 Feb 20:03:35 20:08:04 84° 256° (WSW) 20:12:43 437.445
AO-73 26 Feb 20:07:18 20:11:27 39° 70° (ENE) 20:15:42 145.935
AAUSAT CUBESAT 2 26 Feb 20:09:44 20:13:53 87° 82° (E) 20:18:04 437.432
Oscar 11 26 Feb 20:12:20 20:16:21 38° 70° (ENE) 20:20:24 .
SEEDS 26 Feb 20:25:26 20:29:15 32° 264° (W) 20:33:04 437.485
HO-68 26 Feb 20:28:04 20:34:30 35° 264° (W) 20:40:58 435.675
UWE-3 26 Feb 20:37:57 20:42:22 59° 260° (W) 20:46:56 435.000/436.395/437.385
ZACube-1 26 Feb 20:55:31 20:59:57 63° 259° (W) 21:04:30 437.345
STRAND 1 26 Feb 20:59:06 21:03:56 42° 292° (WNW) 21:08:45 437.568
NO-84 26 Feb 21:18:12 21:21:03 20° 10° (N) 21:24:04 435.350 FM
DELFI C3 26 Feb 21:28:58 21:32:56 81° 77° (ENE) 21:36:54 145.870
AO-73 26 Feb 21:44:15 21:47:48 23° 267° (W) 21:51:27 145.935
LO-87 26 Feb 21:45:42 21:47:47 15° 65° (ENE) 21:49:52 145.935 - 145.965
Oscar 11 26 Feb 21:49:12 21:52:36 22° 267° (W) 21:56:02 .
RS-15 26 Feb 21:55:59 22:06:29 31° 351° (N) 22:17:02 29.354- 29.394
YUBILEINY 26 Feb 21:57:49 22:06:36 82° 81° (E) 22:15:19 435.215
PRISM 26 Feb 22:03:54 22:07:54 52° 101° (E) 22:11:53 437.425
SO-50 26 Feb 22:04:30 22:08:47 37° 117° (ESE) 22:13:03 436.795
ESTCUBE 1 26 Feb 22:25:37 22:29:25 27° 66° (ENE) 22:33:14 437.505/2401.250
SPROUT 26 Feb 22:42:36 22:44:00 11° 59° (ENE) 22:45:23 437.525
TIGRISAT 26 Feb 22:42:38 22:47:17 56° 100° (E) 22:51:51 435.000
UNISAT 6 26 Feb 22:42:49 22:47:29 61° 100° (E) 22:52:05 437.425
O/OREOS (USA 219) 26 Feb 22:45:04 22:49:20 46° 108° (ESE) 22:53:40 437.305
VELOX 1 26 Feb 22:45:19 22:47:57 16° 61° (ENE) 22:50:35 145.980
FO-29 26 Feb 22:46:53 22:53:58 40° 94° (E) 23:00:23 435.910
NO-84 26 Feb 22:55:39 22:59:28 45° 29° (NNE) 23:03:34 435.350 FM
LO-87 26 Feb 23:17:36 23:20:56 38° 262° (W) 23:24:17 145.935 - 145.965
EO-79 26 Feb 23:23:33 23:26:00 15° 90° (E) 23:28:26 145.935-145.965
NANOSAT C BR1 26 Feb 23:38:56 23:42:04 20° 93° (E) 23:45:13 145.865
50 SAT 26 Feb 23:39:20 23:42:26 30° 70° (ENE) 23:45:32 437.505
PRISM 26 Feb 23:40:20 23:42:48 16° 298° (WNW) 23:45:15 437.425
POLYITAN 1 26 Feb 23:40:51 23:44:16 22° 94° (E) 23:47:39 437.675
QB50P2 26 Feb 23:43:45 23:47:22 26° 95° (E) 23:50:57 145.880/145.840
SO-50 26 Feb 23:45:04 23:49:17 33° 316° (NW) 23:53:29 436.795
YUBILEINY 26 Feb 23:56:05 00:02:18 22° 282° (WNW) 00:08:31 435.215
ESTCUBE 1 27 Feb 00:02:02 00:06:07 33° 264° (W) 00:10:12 437.505/2401.250
BUGSAT 1 27 Feb 00:02:12 00:03:26 11° 89° (E) 00:04:42 437.445
DX 1 27 Feb 00:05:45 00:09:53 45° 70° (ENE) 00:14:01 434.975-435.025
AIST 2D 27 Feb 00:10:30 00:14:06 85° 102° (ESE) 00:17:38 435.315
PCSat 27 Feb 00:11:00 00:15:41 28° 44° (NE) 00:20:20 145.827
RS-15 27 Feb 00:12:21 00:23:39 38° 26° (NNE) 00:34:39 29.354- 29.394
UKube-1 27 Feb 00:14:34 00:18:35 40° 69° (ENE) 00:22:37 .
SPROUT 27 Feb 00:15:00 00:19:15 83° 257° (WSW) 00:23:34 437.525
VELOX 1 27 Feb 00:19:37 00:23:56 60° 259° (WSW) 00:28:18 145.980
TIGRISAT 27 Feb 00:20:17 00:23:32 19° 298° (WNW) 00:26:45 435.000
UNISAT 6 27 Feb 00:20:37 00:23:43 18° 299° (WNW) 00:26:47 437.425
O/OREOS (USA 219) 27 Feb 00:25:30 00:29:00 22° 307° (NW) 00:32:31 437.305
FO-29 27 Feb 00:31:48 00:39:03 47° 295° (WNW) 00:45:41 435.910
NO-84 27 Feb 00:33:22 00:37:09 36° 226° (SW) 00:41:08 435.350 FM
DUCHIFAT 1 27 Feb 00:44:59 00:49:17 90° 215° (SW) 00:53:33 145.980
EO-79 27 Feb 00:57:54 01:02:06 55° 288° (WNW) 01:06:18 145.935-145.965
ITUPSAT 1 27 Feb 01:00:08 01:01:48 12° 56° (NE) 01:03:27 437.325
BEESAT 27 Feb 01:04:56 01:07:08 13° 57° (ENE) 01:09:21 436.000
Oscar 19 27 Feb 01:06:42 01:10:09 18° 91° (E) 01:13:33 437.125/150
50 SAT 27 Feb 01:13:14 01:15:38 17° 266° (W) 01:18:02 437.505
NANOSAT C BR1 27 Feb 01:13:56 01:17:58 41° 289° (WNW) 01:21:57 145.865
POLYITAN 1 27 Feb 01:16:11 01:20:08 36° 291° (WNW) 01:24:04 437.675
QB50P2 27 Feb 01:19:21 01:23:09 31° 292° (WNW) 01:26:56 145.880/145.840
BUGSAT 1 27 Feb 01:35:02 01:39:17 73° 285° (WNW) 01:43:32 437.445
DX 1 27 Feb 01:43:16 01:46:17 18° 267° (W) 01:49:19 434.975-435.025
UKube-1 27 Feb 01:51:34 01:54:47 20° 267° (W) 01:57:59 .
PCSat 27 Feb 01:54:06 01:59:24 56° 244° (WSW) 02:04:41 145.827
Gurwin Techsat 1B 27 Feb 02:04:40 02:09:31 34° 96° (E) 02:14:19 435.225
FO-29 27 Feb 02:19:52 02:22:07 12° 316° (NW) 02:24:20 435.910
DUCHIFAT 1 27 Feb 02:23:23 02:24:15 11° 302° (WNW) 02:25:08 145.980
RS-15 27 Feb 02:25:42 02:38:10 85° 55° (NE) 02:50:06 29.354- 29.394
ITUPSAT 1 27 Feb 02:34:01 02:38:50 82° 75° (ENE) 02:43:41 437.325
BEESAT 27 Feb 02:39:25 02:44:13 87° 259° (WSW) 02:49:03 436.000
MOZHAYETS 4 27 Feb 02:44:49 02:49:07 39° 69° (ENE) 02:53:26
Oscar 19 27 Feb 02:44:49 02:49:53 62° 288° (WNW) 02:54:56 437.125/150
KKS-1 27 Feb 03:04:04 03:07:02 18° 62° (ENE) 03:10:00 437.445
ITAMSAT 1 27 Feb 03:22:37 03:27:19 33° 96° (E) 03:32:00 435.822/435.867
STARS 27 Feb 03:33:13 03:35:56 16° 61° (ENE) 03:38:40 437.465
AO-7 27 Feb 03:38:21 03:45:57 37° 97° (E) 03:53:27 .
Gurwin Techsat 1B 27 Feb 03:44:39 03:49:26 35° 294° (WNW) 03:54:12 435.225
AO-85 27 Feb 03:47:38 03:51:22 25° 116° (ESE) 03:54:54 145.980
CUBESAT XI-V 27 Feb 03:49:24 03:53:28 30° 67° (ENE) 03:57:30 437.345
ITUPSAT 1 27 Feb 04:15:24 04:17:16 12° 272° (W) 04:19:08 437.325
BEESAT 27 Feb 04:22:08 04:22:41 10° 273° (W) 04:23:14 436.000
MOZHAYETS 4 27 Feb 04:22:37 04:26:23 24° 266° (W) 04:30:10
KKS-1 27 Feb 04:38:52 04:43:11 53° 260° (W) 04:47:33 437.445
RS-15 27 Feb 04:39:25 04:49:14 30° 258° (WSW) 04:58:46 29.354- 29.394
SO-50 27 Feb 04:54:27 04:56:40 13° 29° (NNE) 04:58:52 436.795
M-CUBED/EXP-1 PRIME 27 Feb 04:57:13 05:00:29 89° 255° (WSW) 05:03:47 437.505
ITAMSAT 1 27 Feb 05:02:02 05:06:47 36° 294° (WNW) 05:11:30 435.822/435.867
STARS 27 Feb 05:07:32 05:11:50 58° 259° (W) 05:16:11 437.465
CUBESAT XI-V 27 Feb 05:26:38 05:30:46 31° 264° (W) 05:34:54 437.345
AO-85 27 Feb 05:27:26 05:31:38 40° 312° (NW) 05:35:35 145.980
BEESAT 3 27 Feb 05:28:11 05:30:35 16° 111° (ESE) 05:33:01 437.485
AO-7 27 Feb 05:30:57 05:38:58 55° 297° (WNW) 05:46:58 .
XW-2C 27 Feb 05:47:43 05:49:11 12° 89° (E) 05:50:38 145.795 - 145.815
DOVE 4 27 Feb 05:51:47 05:55:19 20° 92° (E) 05:58:59 437.250
NUDT-PHONESAT 27 Feb 05:53:06 05:54:01 11° 89° (E) 05:54:56 437.300
LilacSat-2 27 Feb 06:05:30 06:08:22 20° 93° (E) 06:11:13 437.200
BEESAT 2 27 Feb 06:10:20 06:13:07 19° 112° (ESE) 06:15:56 435.950
CUTE-I 27 Feb 06:23:47 06:28:34 32° 96° (E) 06:33:19 437.470
SO-50 27 Feb 06:33:38 06:38:07 58° 51° (NE) 06:42:31 436.795
STRAND 1 27 Feb 06:37:50 06:42:43 46° 69° (ENE) 06:47:39 437.568
KAITUO 1B 27 Feb 06:52:07 06:55:51 54° 100° (E) 06:59:30 145.475/437.950
XW-2F 27 Feb 07:00:11 07:04:01 82° 103° (ESE) 07:07:47 145.980 - 146.000
BEESAT 3 27 Feb 07:03:56 07:07:47 53° 309° (NW) 07:11:41 437.485
XW-2D 27 Feb 07:06:05 07:09:55 80° 284° (WNW) 07:13:42 145.860 - 145.880
XW-2B 27 Feb 07:11:12 07:15:01 72° 285° (WNW) 07:18:48 145.730 - 145.750
O/OREOS (USA 219) 27 Feb 07:14:26 07:17:32 18° 50° (NE) 07:20:39 437.305
CUTE 1.7 + AOD 2 27 Feb 07:14:34 07:16:55 14° 90° (E) 07:19:14 437.475
XW-2C 27 Feb 07:19:59 07:23:45 55° 286° (WNW) 07:27:28 145.795 - 145.815
NUDT-PHONESAT 27 Feb 07:24:37 07:28:21 59° 286° (WNW) 07:32:01 437.300
AO-7 27 Feb 07:25:43 07:29:58 15° 320° (NW) 07:34:12 .
DOVE 4 27 Feb 07:28:39 07:33:13 50° 288° (WNW) 07:38:03 437.250
LilacSat-2 27 Feb 07:39:16 07:42:44 32° 290° (WNW) 07:46:09 437.200
BEESAT 2 27 Feb 07:46:44 07:50:34 47° 310° (NW) 07:54:28 435.950
ISS 27 Feb 07:49:21 07:52:25 36° 141° (SE) 07:55:29 437.550
AAUSAT CUBESAT 2 27 Feb 07:51:53 07:53:21 12° 89° (E) 07:54:50 437.432
HO-68 27 Feb 07:52:32 07:59:18 43° 98° (E) 08:06:00 435.675
CUBEBUG 2 27 Feb 07:53:08 07:56:37 20° 91° (E) 08:00:03 437.445
CUTE-I 27 Feb 08:03:42 08:08:39 38° 293° (WNW) 08:13:35 437.470
XW-2A 27 Feb 08:05:20 08:08:50 80° 103° (ESE) 08:12:17 145.665 - 145.685
SEEDS 27 Feb 08:06:50 08:10:40 34° 97° (E) 08:14:27 437.485
Tancredo 1 27 Feb 08:09:45 08:12:57 58° 146° (SE) 08:16:09 437.200
SO-50 27 Feb 08:15:04 08:18:08 18° 249° (WSW) 08:21:12 436.795
STRAND 1 27 Feb 08:17:58 08:22:06 24° 267° (W) 08:26:16 437.568
UWE-3 27 Feb 08:25:52 08:29:48 26° 93° (E) 08:33:39 435.000/436.395/437.385
KAITUO 1B 27 Feb 08:27:39 08:29:25 13° 297° (WNW) 08:31:10 145.475/437.950
ZACube-1 27 Feb 08:42:24 08:46:01 23° 93° (E) 08:49:34 437.345
BEESAT 3 27 Feb 08:45:23 08:46:18 11° 330° (NNW) 08:47:12 437.485
CUTE 1.7 + AOD 2 27 Feb 08:48:58 08:53:06 54° 287° (WNW) 08:57:11 437.475
O/OREOS (USA 219) 27 Feb 08:52:51 08:57:24 64° 250° (WSW) 09:01:56 437.305
PRISM 27 Feb 08:54:50 08:58:44 48° 72° (ENE) 09:02:40 437.425
FO-29 27 Feb 09:00:52 09:06:43 26° 56° (NE) 09:12:50 435.910
YUBILEINY 27 Feb 09:08:08 09:13:49 19° 76° (ENE) 09:19:29 435.215
AAUSAT CUBESAT 2 27 Feb 09:25:10 09:29:16 64° 285° (WNW) 09:33:19 437.432
ISS 27 Feb 09:25:41 09:28:51 42° 339° (NNW) 09:32:02 437.550
CUBEBUG 2 27 Feb 09:28:52 09:33:29 50° 289° (WNW) 09:38:02 437.445
AO-73 27 Feb 09:29:01 09:33:33 62° 100° (E) 09:37:57 145.935
Oscar 11 27 Feb 09:33:07 09:37:24 58° 100° (E) 09:41:38 .
HO-68 27 Feb 09:40:23 09:46:59 42° 297° (WNW) 09:53:35 435.675
TIGRISAT 27 Feb 09:42:45 09:47:13 60° 73° (ENE) 09:51:48 435.000
SEEDS 27 Feb 09:42:53 09:46:10 23° 294° (WNW) 09:49:26 437.485
UNISAT 6 27 Feb 09:43:06 09:47:35 65° 73° (ENE) 09:52:12 437.425
Tancredo 1 27 Feb 09:46:21 09:49:21 33° 344° (NNW) 09:52:22 437.200
UWE-3 27 Feb 10:02:02 10:06:19 36° 291° (WNW) 10:10:31 435.000/436.395/437.385
EO-79 27 Feb 10:18:09 10:20:38 15° 62° (ENE) 10:23:07 145.935-145.965
ZACube-1 27 Feb 10:18:11 10:22:26 39° 290° (WNW) 10:26:36 437.345
PRISM 27 Feb 10:31:51 10:34:17 15° 268° (W) 10:36:45 437.425
NANOSAT C BR1 27 Feb 10:33:04 10:36:07 20° 64° (ENE) 10:39:11 145.865
POLYITAN 1 27 Feb 10:35:22 10:38:41 23° 65° (ENE) 10:42:02 437.675
QB50P2 27 Feb 10:38:13 10:41:43 25° 66° (ENE) 10:45:14 145.880/145.840
DELFI C3 27 Feb 10:38:44 10:42:40 80° 284° (WNW) 10:46:35 145.870
FO-29 27 Feb 10:43:33 10:50:51 81° 257° (WSW) 10:58:45 435.910
LO-87 27 Feb 10:43:42 10:45:36 14° 91° (E) 10:47:29 145.935 - 145.965
AIST 2D 27 Feb 10:46:40 10:50:00 39° 72° (ENE) 10:53:22 435.315
BUGSAT 1 27 Feb 10:54:34 10:55:36 11° 59° (ENE) 10:56:38 437.445
YUBILEINY 27 Feb 11:00:28 11:09:18 88° 99° (E) 11:18:09 435.215
ISS 27 Feb 11:03:03 11:05:52 25° 360° (N) 11:08:40 437.550
AO-73 27 Feb 11:06:30 11:09:16 16° 299° (WNW) 11:12:01 145.935
Oscar 11 27 Feb 11:10:30 11:13:05 16° 298° (WNW) 11:15:38 .
TIGRISAT 27 Feb 11:21:39 11:24:20 15° 271° (W) 11:27:02 435.000
UNISAT 6 27 Feb 11:22:21 11:24:46 14° 271° (W) 11:27:14 437.425
Tancredo 1 27 Feb 11:23:28 11:26:14 25° 4° (N) 11:28:59 437.200
DUCHIFAT 1 27 Feb 11:38:13 11:42:25 84° 79° (ENE) 11:46:41 145.980
EO-79 27 Feb 11:51:46 11:55:56 58° 259° (W) 12:00:09 145.935-145.965
ESTCUBE 1 27 Feb 11:51:54 11:56:11 43° 99° (E) 12:00:27 437.505/2401.250
Gurwin Techsat 1B 27 Feb 11:52:38 11:53:52 11° 53° (NE) 11:55:06 435.225
SPROUT 27 Feb 12:00:00 12:02:27 15° 90° (E) 12:04:53 437.525
NANOSAT C BR1 27 Feb 12:07:31 12:11:32 42° 262° (W) 12:15:36 145.865
VELOX 1 27 Feb 12:08:03 12:11:29 22° 94° (E) 12:14:54 145.980
POLYITAN 1 27 Feb 12:10:20 12:14:16 37° 263° (W) 12:18:15 437.675
QB50P2 27 Feb 12:13:35 12:17:23 32° 264° (W) 12:21:14 145.880/145.840
LO-87 27 Feb 12:15:51 12:19:16 42° 288° (WNW) 12:22:41 145.935 - 145.965
AO-85 27 Feb 12:16:22 12:20:01 36° 47° (NE) 12:23:41 145.980
AIST 2D 27 Feb 12:21:27 12:23:26 14° 269° (W) 12:25:25 435.315
Oscar 19 27 Feb 12:25:04 12:29:37 33° 66° (ENE) 12:34:10 437.125/150
BUGSAT 1 27 Feb 12:26:13 12:30:18 82° 257° (WSW) 12:34:28 437.445
FO-29 27 Feb 12:32:37 12:37:05 17° 277° (W) 12:41:44 435.910
50 SAT 27 Feb 12:35:05 12:38:00 25° 96° (E) 12:40:54 437.505
ISS 27 Feb 12:39:44 12:42:53 41° 19° (NNE) 12:46:02 437.550
AO-7 27 Feb 12:51:22 12:56:10 17° 42° (NE) 13:00:57 .
Tancredo 1 27 Feb 12:59:47 13:02:58 54° 24° (NNE) 13:06:08 437.200
YUBILEINY 27 Feb 13:00:46 13:07:21 23° 300° (WNW) 13:13:58 435.215
Gurwin Techsat 1B 27 Feb 13:27:33 13:32:48 66° 72° (ENE) 13:38:06 435.225
DX 1 27 Feb 13:27:35 13:31:56 64° 102° (ESE) 13:36:16 434.975-435.025
ESTCUBE 1 27 Feb 13:29:20 13:32:43 21° 296° (WNW) 13:36:05 437.505/2401.250
